Hourly Weather Danilovichi

Today, 16 May, Sunday

Time Temperature Precipitation Wind Pressure Humidity
00:00 +10°C° 0 mm 1 mps 739 mmHg 90%
01:00 +10°C° 0 mm 1 mps 739 mmHg 89%
02:00 +10°C° 0 mm 1 mps 739 mmHg 90%
03:00 +9°C° 0 mm 2 mps 739 mmHg 91%
04:00 +9°C° 0 mm 2 mps 739 mmHg 92%
05:00 +8°C° 0 mm 2 mps 739 mmHg 93%
06:00 +10°C° 0 mm 2 mps 739 mmHg 88%
07:00 +12°C° 0 mm 2 mps 739 mmHg 84%
08:00 +14°C° 0 mm 2 mps 739 mmHg 80%
09:00 +14°C° 0 mm 3 mps 739 mmHg 74%
10:00 +17°C° 0 mm 3 mps 739 mmHg 68%
11:00 +18°C° 0 mm 3 mps 739 mmHg 62%
12:00 +19°C° 0 mm 4 mps 739 mmHg 60%
13:00 +19°C° 0 mm 4 mps 739 mmHg 58%
14:00 +20°C° 0 mm 4 mps 738 mmHg 56%
15:00 +20°C° 0.1 mm 4 mps 738 mmHg 61%
16:00 +19°C° 0.1 mm 4 mps 738 mmHg 66%
17:00 +19°C° 0.1 mm 4 mps 737 mmHg 71%
18:00 +18°C° 0.4 mm 3 mps 737 mmHg 75%
19:00 +16°C° 0.4 mm 3 mps 737 mmHg 79%
20:00 +14°C° 0.4 mm 3 mps 737 mmHg 84%
21:00 +14°C° 0.7 mm 3 mps 737 mmHg 86%
22:00 +14°C° 0.7 mm 3 mps 737 mmHg 89%
23:00 +13°C° 0.7 mm 3 mps 737 mmHg 91%

Tomorrow, 17 May, Monday

Time Temperature Precipitation Wind Pressure Humidity
00:00 +13°C° 0.1 mm 3 mps 737 mmHg 93%
01:00 +13°C° 0.1 mm 3 mps 737 mmHg 94%
02:00 +13°C° 0.1 mm 2 mps 737 mmHg 95%
03:00 +13°C° 0 mm 2 mps 737 mmHg 96%
04:00 +12°C° 0 mm 3 mps 737 mmHg 96%
05:00 +12°C° 0 mm 3 mps 737 mmHg 96%
06:00 +13°C° 0.1 mm 2 mps 737 mmHg 95%
07:00 +13°C° 0.1 mm 2 mps 737 mmHg 95%
08:00 +14°C° 0.1 mm 2 mps 738 mmHg 95%
09:00 +15°C° 0 mm 2 mps 738 mmHg 89%
10:00 +16°C° 0 mm 1 mps 738 mmHg 83%
11:00 +18°C° 0 mm 1 mps 737 mmHg 78%
12:00 +19°C° 0.1 mm 1 mps 737 mmHg 74%
13:00 +17°C° 0.1 mm 0 mps 737 mmHg 71%
14:00 +18°C° 0.1 mm 0 mps 737 mmHg 67%
15:00 +20°C° 0.2 mm 1 mps 736 mmHg 69%
16:00 +20°C° 0.2 mm 1 mps 736 mmHg 71%
17:00 +19°C° 0.2 mm 2 mps 736 mmHg 73%
18:00 +17°C° 0.1 mm 2 mps 736 mmHg 78%
19:00 +16°C° 0.1 mm 2 mps 735 mmHg 84%
20:00 +15°C° 0.1 mm 2 mps 735 mmHg 89%
21:00 +14°C° 0 mm 2 mps 735 mmHg 91%
22:00 +14°C° 0 mm 2 mps 734 mmHg 93%
23:00 +13°C° 0 mm 2 mps 734 mmHg 95%

Day after tomorrow, 18 May, Tuesday

Time Temperature Precipitation Wind Pressure Humidity
00:00 +13°C° 0 mm 2 mps 733 mmHg 95%
01:00 +12°C° 0 mm 2 mps 733 mmHg 95%
02:00 +12°C° 0 mm 2 mps 732 mmHg 95%
03:00 +12°C° 0 mm 2 mps 732 mmHg 96%
04:00 +12°C° 0 mm 2 mps 732 mmHg 96%
05:00 +12°C° 0 mm 2 mps 731 mmHg 96%
06:00 +13°C° 0 mm 2 mps 731 mmHg 94%
07:00 +14°C° 0 mm 2 mps 731 mmHg 91%
08:00 +14°C° 0 mm 3 mps 731 mmHg 89%
09:00 +15°C° 0.5 mm 2 mps 731 mmHg 86%
10:00 +16°C° 0.5 mm 2 mps 731 mmHg 84%
11:00 +16°C° 0.5 mm 2 mps 731 mmHg 81%
12:00 +17°C° 0.9 mm 2 mps 732 mmHg 82%
13:00 +17°C° 0.9 mm 2 mps 732 mmHg 83%
14:00 +17°C° 0.9 mm 2 mps 732 mmHg 84%
15:00 +17°C° 0.6 mm 2 mps 732 mmHg 82%
16:00 +17°C° 0.6 mm 2 mps 733 mmHg 80%
17:00 +18°C° 0.6 mm 2 mps 733 mmHg 79%
18:00 +17°C° 0.5 mm 2 mps 733 mmHg 82%
19:00 +16°C° 0.5 mm 3 mps 733 mmHg 86%
20:00 +14°C° 0.5 mm 3 mps 734 mmHg 89%
21:00 +13°C° 0.3 mm 3 mps 734 mmHg 91%
22:00 +13°C° 0.3 mm 3 mps 734 mmHg 93%
23:00 +12°C° 0.3 mm 4 mps 734 mmHg 96%

19 May, Wednesday

Time Temperature Precipitation Wind Pressure Humidity
00:00 +12°C° 2.1 mm 4 mps 734 mmHg 96%
01:00 +10°C° 2.1 mm 5 mps 735 mmHg 97%
02:00 +10°C° 2.1 mm 5 mps 735 mmHg 97%
03:00 +10°C° 1.9 mm 5 mps 735 mmHg 97%
04:00 +9°C° 1.9 mm 5 mps 735 mmHg 97%
05:00 +9°C° 1.9 mm 5 mps 735 mmHg 97%
06:00 +9°C° 2.1 mm 5 mps 735 mmHg 97%
07:00 +9°C° 2.1 mm 5 mps 735 mmHg 97%
08:00 +8°C° 2.1 mm 5 mps 736 mmHg 97%
09:00 +8°C° 3.4 mm 6 mps 736 mmHg 96%
10:00 +8°C° 3.4 mm 6 mps 736 mmHg 96%
11:00 +8°C° 3.4 mm 6 mps 736 mmHg 96%
12:00 +8°C° 2.2 mm 6 mps 736 mmHg 95%
13:00 +8°C° 2.2 mm 6 mps 736 mmHg 94%
14:00 +9°C° 2.2 mm 6 mps 737 mmHg 94%
15:00 +9°C° 0.5 mm 5 mps 737 mmHg 93%
16:00 +9°C° 0.5 mm 5 mps 737 mmHg 92%
17:00 +10°C° 0.5 mm 5 mps 737 mmHg 91%
18:00 +10°C° 0.1 mm 4 mps 737 mmHg 92%
19:00 +10°C° 0.1 mm 4 mps 737 mmHg 93%
20:00 +10°C° 0.1 mm 3 mps 737 mmHg 93%
21:00 +10°C° 0 mm 4 mps 737 mmHg 94%
22:00 +10°C° 0 mm 4 mps 737 mmHg 95%
23:00 +9°C° 0 mm 5 mps 737 mmHg 95%

20 May, Thursday

Time Temperature Precipitation Wind Pressure Humidity
00:00 +8°C° 0 mm 5 mps 737 mmHg 96%
01:00 +8°C° 0 mm 5 mps 737 mmHg 96%
02:00 +7°C° 0 mm 5 mps 737 mmHg 96%
03:00 +7°C° 0 mm 5 mps 737 mmHg 96%
04:00 +7°C° 0 mm 5 mps 738 mmHg 95%
05:00 +7°C° 0 mm 5 mps 738 mmHg 94%
06:00 +7°C° 0 mm 5 mps 738 mmHg 91%
07:00 +8°C° 0 mm 5 mps 738 mmHg 88%
08:00 +8°C° 0 mm 5 mps 738 mmHg 85%
09:00 +10°C° 0 mm 5 mps 739 mmHg 78%
10:00 +12°C° 0 mm 5 mps 739 mmHg 70%
11:00 +14°C° 0 mm 5 mps 739 mmHg 62%
12:00 +15°C° 0 mm 4 mps 739 mmHg 59%
13:00 +15°C° 0 mm 4 mps 739 mmHg 57%
14:00 +17°C° 0 mm 4 mps 739 mmHg 54%
15:00 +17°C° 0 mm 3 mps 739 mmHg 58%
16:00 +16°C° 0 mm 3 mps 739 mmHg 62%
17:00 +16°C° 0 mm 3 mps 739 mmHg 67%
18:00 +13°C° 0 mm 3 mps 740 mmHg 72%
19:00 +12°C° 0 mm 3 mps 740 mmHg 77%
20:00 +11°C° 0 mm 3 mps 740 mmHg 83%
21:00 +10°C° 0 mm 3 mps 740 mmHg 85%
22:00 +9°C° 0 mm 3 mps 741 mmHg 87%
23:00 +8°C° 0 mm 3 mps 741 mmHg 89%

21 May, Friday

Time Temperature Precipitation Wind Pressure Humidity
00:00 +8°C° 0 mm 2 mps 741 mmHg 90%
01:00 +7°C° 0 mm 2 mps 741 mmHg 90%
02:00 +7°C° 0 mm 2 mps 741 mmHg 91%
03:00 +6°C° 0 mm 2 mps 741 mmHg 92%
04:00 +6°C° 0 mm 2 mps 741 mmHg 92%
05:00 +6°C° 0 mm 2 mps 741 mmHg 93%
06:00 +7°C° 0 mm 2 mps 741 mmHg 86%
07:00 +9°C° 0 mm 2 mps 741 mmHg 78%
08:00 +10°C° 0 mm 2 mps 742 mmHg 70%
09:00 +12°C° 0 mm 3 mps 741 mmHg 67%
10:00 +13°C° 0 mm 3 mps 741 mmHg 64%
11:00 +14°C° 0 mm 3 mps 741 mmHg 61%
12:00 +14°C° 0.2 mm 4 mps 741 mmHg 63%
13:00 +14°C° 0.2 mm 4 mps 741 mmHg 66%
14:00 +14°C° 0.2 mm 5 mps 741 mmHg 68%
15:00 +14°C° 0.1 mm 5 mps 741 mmHg 67%
16:00 +14°C° 0.1 mm 5 mps 741 mmHg 66%
17:00 +14°C° 0.1 mm 5 mps 741 mmHg 65%
18:00 +13°C° 0 mm 4 mps 741 mmHg 69%
19:00 +11°C° 0 mm 3 mps 741 mmHg 73%
20:00 +10°C° 0 mm 3 mps 741 mmHg 77%
21:00 +9°C° 0 mm 3 mps 741 mmHg 78%
22:00 +9°C° 0 mm 2 mps 742 mmHg 79%
23:00 +8°C° 0 mm 2 mps 742 mmHg 80%
Show more